Regional Weather Roundup
Issued by NWS

Home | Current Version | Previous Version | Graphics & Text | Print | Product List | Glossary On
Versions: 1 2 3 4 5 6 7 8 9 10 11 12 13 14 15 16 17 18 19 20 21 22 23 24 25 26 27 28 29 30 31 32 33 34 35 36 37 38 39 40 41 42 43 44 45 46 47 48 49 50
719
ASUS45 KBOU 301607
RWRCO

WEATHER ROUNDUP FOR COLORADO
NATIONAL WEATHER SERVICE DENVER/BOULDER CO
1000 AM MDT SUN APR 30 2017

NOTE: "FAIR" INDICATES FEW OR NO CLOUDS BELOW 12000 FEET WITH NO
SIGNIFICANT WEATHER AND/OR OBSTRUCTIONS TO VISIBILITY.

COZ001>005-013-030-031-301700-
...NORTHWEST COLORADO...

CITY           SKY/WX    TMP DP  RH WIND       PRES   REMARKS
CRAIG          FAIR      39  24  55 VRB3      30.16F
HAYDEN         FAIR      34  18  51 W6        30.16F WCI  29
MEEKER         FAIR      36  23  59 CALM      30.17F
MOUNT WERNER   NOT AVBL
STEAMBOAT SPGS FAIR      33  20  60 N3        30.15F
WALDEN           N/A     30  14  51 SW3       30.13S
$$

COZ006>008-011-301700-
...WEST CENTRAL VALLEYS...

CITY           SKY/WX    TMP DP  RH WIND       PRES   REMARKS
GRAND JUNCTION FAIR      46  18  32 CALM      30.18S
MONTROSE       FAIR      42  19  39 MISG      30.20F
EAGLE          MOSUNNY   37  19  48 W7        30.18F
RIFLE          FAIR      42  20  41 CALM      30.17F
DELTA          FAIR      46  19  35 CALM      30.18F
NUCLA          FAIR      45  18  33 CALM      30.20F
$$

COZ017>023-064>068-301700-
...SOUTHWEST COLORADO...

CITY           SKY/WX    TMP DP  RH WIND       PRES   REMARKS
DURANGO        FAIR      33  24  69 CALM      30.06S
CORTEZ         FAIR      48  21  34 N18G26    30.13S
PAGOSA SPRINGS FAIR      37  24  60 S7        30.05R
TELLURIDE      FAIR      30  11  45 SW5       30.16S WCI  26
WOLF CREEK PAS FAIR      21   1  42 NW12G22   30.11R WCI   9
$$

COZ009-010-012-014-032>034-037-058>063-301700-
...CENTRAL COLORADO...

CITY           SKY/WX    TMP DP  RH WIND       PRES   REMARKS
ASPEN          FAIR      35  16  45 N7        30.14S WCI  29
BUENA VISTA    FAIR      37   9  31 NW23G40   30.00F
COPPER MTN     FAIR      18  10  73 MISG      30.06S HAZE
BERTHOUD PASS  PTSUNNY    9  -4  56 N22G40    30.03R WCI -11
COTTONWOOD PAS FAIR      32   3  29 W17G32    30.01R WCI  21
GUNNISON       FAIR      37   6  27 NW14      30.11R
KREMMLING      FAIR      36  23  60 CALM      30.16S
LEADVILLE      FAIR      26   6  42 N18G28    30.07R WCI  13
MONARCH PASS     N/A     14  12  92 W25G35    30.15R WCI  -5
SALIDA         FAIR      39  18  42 N13G18    30.08S
SUNLIGHT       FAIR      19  14  79 NW5       30.20S WCI  13
WILKERSON PASS FAIR      25  14  63 N12G21    30.00R WCI  14
$$

COZ069>075-301700-
...SAN LUIS VALLEY/SANGRE DE CRISTO MOUNTAINS...

CITY           SKY/WX    TMP DP  RH WIND       PRES   REMARKS
ALAMOSA        FAIR      41  18  39 N17G23    29.98S
LA VETA PASS   FAIR      30  19  64 NW12G23   30.08R WCI  21
SAGUACHE       FAIR      39  12  33 N28G33    30.01S
$$

COZ035-036-038>040-301700-
...NORTHERN COLORADO FRONT RANGE...

CITY           SKY/WX    TMP DP  RH WIND       PRES   REMARKS
DENVER INTL AP PTSUNNY   38  22  52 N18       29.97S
DMNS CITY PARK   N/A     40  16  37 NW9       30.00S
AURORA         PTSUNNY   33  21  61 NW6       30.00R WCI  28
FRONT RANGE AP PTSUNNY   37  25  60 N20       29.99S
ERIE MUNI ARPT FAIR      39  20  46 CALM      30.00S
BOULDER MUN AP FAIR      41  19  42 SE7       30.00R
CENTENNIAL     PTSUNNY   34  19  54 NW6       29.99S WCI  29
BROOMFIELD     MOSUNNY   37  18  44 CALM      30.00R
FORT COLLINS   FAIR      41  23  48 SW6       29.98S
LONGMONT       FAIR      45  20  37 SE5       30.02R
$$

COZ041-046-047-076>085-087-088-301700-
...PIKES PEAK/PALMER DIVIDE AND SOUTHERN FOOTHILLS...

CITY           SKY/WX    TMP DP  RH WIND       PRES   REMARKS
COLO. SPRINGS  PTSUNNY   37  12  35 N25G33    29.97R
A. F. ACADEMY  FAIR      32  12  43 N25G31    29.95R WCI  19
SCHRIEVER AFB  FAIR      33  16  49 NW23G33   29.96R WCI  20
ELLICOTT       FAIR     N/A N/A N/A N24G32    29.92R
FALCON         FAIR      32  14  47 N16G26    29.95R WCI  21
FORT CARSON    FAIR      38  16  40 N24G37    29.96R
LIMON          FAIR      33  24  69 N30G40    29.90R WCI  19
MONUMENT HILL  FAIR      30  16  55 N21G28    29.98R WCI  17
TRINIDAD       FAIR      33  19  56 N16       29.97S WCI  23
$$

COZ042>045-048>051-090-091-301700-
...NORTHEAST COLORADO...

CITY           SKY/WX    TMP DP  RH WIND       PRES   REMARKS
GREELEY ARPT   FAIR      48  21  34 N25       29.99F
AKRON          FAIR      40  20  44 N33G43    29.91S
BURLINGTON     NOT AVBL
WRAY           NOT AVBL
STERLING       FAIR      43  25  49 N26G37    29.93S
HOLYOKE        FAIR      41  23  48 N23G35    29.88R
FORT MORGAN    FAIR      45  19  34 N29G39    29.97S
$$

COZ086-089-092>099-301700-
...SOUTHEAST COLORADO...

CITY           SKY/WX    TMP DP  RH WIND       PRES   REMARKS
PUEBLO         FAIR      39  22  50 N13       29.98S
LA JUNTA       FAIR      39  26  59 NW23G29   29.94S
LAMAR          CLOUDY    37  28  70 NW16      29.85S
SPRINGFIELD      N/A     30  30 100 N48G61    29.80R WCI  12
$$




USA.gov is the U.S. government's official web portal to all federal, state and local government web resources and services.